Terug naar catalogus

HELLAS-SAT 1

DFS 3

ActiefCommunicatieGEO
NORAD 22175·PAYLOAD·🇬🇷 Greece

Gelanceerd Oct 12, 1992 vanaf Cape Canaveral Space Force Station

Loading…

TLE

VersSource: Space-Track

Epoch: Sep 14, 2026, 14:43 UTC

1 22175U 92066A   26257.61323147 -.00000134  00000-0  00000-0 0  9998
2 22175  14.2901   6.3798 0002169 206.7962 174.2329  0.99737569121444

Volg HELLAS-SAT 1 in realtime met AllMySat

Download on the App Store